Weather in Urdoma

Russia / Arkhangel'skaya Oblast'     61°45′31″N   48°32′25″E
temp.,
°C
wind,
m/s
gust,
m/s
humid.,
%
clouds,
%
prec.,
mm/h
press.,
hPa
HPBL,
m
30 november, tue
tue3000:00−15ene399599 0.0 1014221
03:00−14ene4149268 0.0 1010329
06:00−11ene51788100 0.0 1006468
09:00−10ene71992100 0.3 1000592
12:00−8ene71993100 0.8 993608
15:00−6e71893100 4.8 987711
18:00−5e51595100 1.3 982556
21:00−2e31098100 2.5 980445
1 december, wed
wed100:000se31099100 2.9 978533
03:00+1s51398100 3.2 978918
06:000s5129181 0.3 979852
09:00−2s51292100 0.4 981879
12:00−2s51193100 0.4 9831086
15:00−3s41093100 0.8 984687
18:00−4s41196100 0.5 985711
21:00−4s3109490 0.8 985493
2 december, thu
thu200:00−6s399582 0.2 986301
03:00−10s279891 0.2 987139
06:00−10ssw3897100 0.1 987196
09:00−10ssw3996100 0.1 989286
12:00−8sw3994100 0.1 990418
15:00−8wsw41093100 0.1 992528
18:00−8sw41093100 0.1 993632
21:00−11sw4109399 0.3 995475
3 december, fri
fri300:00−11wsw41193100 0.3 996492
03:00−12wsw41093100 0.4 998440
06:00−14wsw389673 0.1 1000222
09:00−18wsw259982 0.1 100397
12:00−16sw139733 0.0 100485
15:00−20ssw0010068 0.0 10079
18:00−23e0010084 0.0 10099
21:00−23ene22100100 0.0 101032
4 december, sat
sat400:00−16ene2697100 0.0 1011135
03:00−14ene41095100 0.1 1010259
06:00−13ene51494100 0.7 1008430
09:00−12ene61794100 3.1 1005516
12:00−12ene61594100 2.9 1003535
15:00−12ene51394100 6.6 1000500
18:00−12ene3895100 2.4 1002331
21:00−14ene249794 2.8 100484